Location: ????????
(55.4000°N, 39.1167°E)
Time: 14:25:36
(UTC+00:00)

Cosmos 2322 Rocket - Pass Details

Date: 19 May 2025
Orbit: 832 x 849 km, 71.0° (Epoch: 20 June)

Event Time Altitude Azimuth Distance (km) Brightness Sun altitude
Rises 22:51:21 0° 316° (NW) 3,415 5.7 -12.2°
Reaches altitude 10° 22:55:21 10° 289° (WNW) 2,469 4.6 -11.9°
Maximum altitude 22:57:35 12° 265° (W) 2,289 4.2 -11.8°
Drops below altitude 10° 22:59:49 10° 242° (WSW) 2,457 4.1 -11.7°
Enters shadow 23:00:06 - 239° (WSW) 2,502 4.2 -11.7°
